EUTELSAT 36D

Last updated on Sun Apr 12 2026 00:02:56 GMT+0000 (Coordinated Universal Time)

1 59346U 24059A 26101.17266953 .00000157 00000+0 00000+0 0 9997 2 59346 0.0176 190.2663 0000744 304.4812 162.6953 1.00272725 7473
UTC large
Height (km)
Speed (km/s)
/
Latitude / Longitude
Inclination (degrees)
Orbital Period (minutes)
Azimuth
Elevation
Range (km)
Doppler Factor

Next 0 passes for location: London (51.5072 / 0.1276)

Sorry there are no passes over London.
EUTELSAT 36D